Miscellaneous Local Product
Issued by NWS Hastings, NE

Home | Current Version | Previous Version | Graphics & Text | Print | Product List | Glossary On
Versions: 1 2 3 4 5 6 7 8 9 10 11 12 13 14 15 16 17 18 19 20 21 22 23 24 25 26 27 28 29 30 31 32 33 34 35 36 37 38 39 40 41 42 43 44 45 46 47 48 49 50
232
AXUS43 KGID 100802
MISGRI

GID CWA HOURLY WEATHER ROUNDUP
NATIONAL WEATHER SERVICE HASTINGS NE
200 AM CST WED FEB 10 2016

NOTE: "FAIR" INDICATES FEW OR NO CLOUDS BELOW 12,000 FEET WITH NO
SIGNIFICANT WEATHER AND/OR OBSTRUCTIONS TO VISIBILITY.

...SOUTH CENTRAL NEBRASKA...

CITY           SKY/WX    TMP DP  RH WIND       PRES   REMARKS
GRAND ISLAND   CLOUDY    27  22  81 S7        30.08F WCI  19
HASTINGS       CLOUDY    28  21  75 SW8       30.08F WCI  20
ORD            CLOUDY    32  26  78 SW10      30.01F WCI  24
YORK           CLOUDY    25  19  80 S9        30.12S WCI  15
AURORA         CLOUDY    25  19  77 SW13      30.10F WCI  14
LEXINGTON      CLEAR     28  24  82 W5        30.08F WCI  23
HOLDREGE       CLEAR     28  23  81 SW5       30.09S WCI  23
HEBRON         CLOUDY    27  18  69 S6        30.15F WCI  20

...NEBRASKA PANHANDLE...

CITY           SKY/WX    TMP DP  RH WIND       PRES   REMARKS
CHADRON        CLEAR     33  26  75 SW7       30.04F WCI  27
ALLIANCE       CLEAR     30  24  78 W13       30.06F WCI  20
SCOTTSBLUFF    CLEAR     32  24  72 N3        30.11F
SIDNEY         CLEAR     35  24  64 W15       30.13F WCI  25

...WESTERN AND NORTH CENTRAL NEBRASKA...

CITY           SKY/WX    TMP DP  RH WIND       PRES   REMARKS
VALENTINE      CLEAR     30  27  88 W7        29.97F WCI  23
AINSWORTH      CLEAR     32  27  84 SW3       29.98F
ONEILL         CLOUDY    30  25  82 CALM      30.02F
BROKEN BOW     CLOUDY    33  28  81 W3        30.03F
IMPERIAL       CLEAR     38  26  62 W15       30.10F WCI  29
NORTH PLATTE   CLEAR     22  21  96 NW6       30.06F WCI  14
MCCOOK         CLEAR     30  26  85 W9        30.09F WCI  22

...EASTERN NEBRASKA...

CITY           SKY/WX    TMP DP  RH WIND       PRES   REMARKS
NORFOLK        CLOUDY    27  18  69 S15       30.05F WCI  15
SO SIOUX CITY  CLOUDY    19  13  77 E7        30.12F WCI  10
TEKAMAH        CLOUDY    40  12  32 S8        30.13F WCI  34
COLUMBUS       CLOUDY    27  10  50 S10       30.09F WCI  17
ALBION         CLOUDY    26  19  76 S7        30.05F WCI  18
OMAHA EPPLEY   CLOUDY    20  15  81 S7        30.16F WCI  11
OFFUTT AFB     CLOUDY    21  16  82 S2        30.15F
MILLARD        CLOUDY    22  15  76 CALM      30.16F
LINCOLN        CLOUDY    24  17  74 S6        30.15F WCI  17
NEBRASKA CITY  CLOUDY    20  15  82 S3        30.18F
BEATRICE       CLOUDY    26  16  67 SW7       30.17S WCI  18
FALLS CITY     CLOUDY    21  13  71 S5        30.20F WCI  15

...NORTHERN KANSAS...

CITY           SKY/WX    TMP DP  RH WIND       PRES   REMARKS
GOODLAND       CLEAR     37  25  61 W15       30.15F WCI  28
HILL CITY      CLEAR     30  24  78 W7        30.11F WCI  23
NORTON         SUNNY     28  21  74 SW10      30.08F WCI  19
PHILLIPSBURG   CLEAR     30  23  74 CALM      30.11F
SMITH CENTER   MOCLDY    27  21  80 CALM      30.13S
BELOIT         CLOUDY    27  18  69 SE6       30.16F WCI  20
HAYS           CLEAR     28  16  59 S7        30.14F WCI  21
RUSSELL        CLEAR     28  22  78 SW14      30.13F WCI  17
CONCORDIA      CLOUDY    26  16  65 S8        30.17F WCI  18
SALINA         CLOUDY    29  17  61 S8        30.20F WCI  21
TOPEKA         CLOUDY    23  11  60 CALM      30.23F



USA.gov is the U.S. government's official web portal to all federal, state and local government web resources and services.